Regional Weather Roundup
Issued by NWS

Home | Current Version | Previous Version | Text Only | Print | Product List | Glossary Off
Versions: 1 2 3 4 5 6 7 8 9 10 11 12 13 14 15 16 17 18 19 20 21 22 23 24 25 26 27 28 29 30 31 32 33 34 35 36 37 38 39 40 41 42 43 44 45 46 47 48 49 50

000
ASUS43 KOAX 212002
RWRNE

WEATHER ROUNDUP FOR NEBRASKA
NATIONAL WEATHER SERVICE OMAHA NE
300 PM CDT TUE OCT 21 2014

NOTES: SATELLITE DATA IS BEING USED TO AUGMENT CLOUD COVER ABOVE
       12000 FEET.
       "FAIR" INDICATES FEW OR NO CLOUDS BELOW 12,000 FEET WITH NO
       SIGNIFICANT WEATHER AND/OR OBSTRUCTIONS TO VISIBILITY.

  * THESE STATIONS DO NOT REPORT WEATHER SUCH AS RAIN...SNOW OR FOG.

NEZ001>004-019>022-054>056-212100-
NEBRASKA PANHANDLE

CITY           SKY/WX    TMP DP  RH WIND       PRES   REMARKS
SCOTTSBLUFF    MOSUNNY   73  46  38 SE14      29.87F
ALLIANCE       SUNNY     74  48  39 SE16G25   29.89F
CHADRON        PTSUNNY   83  41  22 SW16      29.80F
KIMBALL        SUNNY     75  41  30 SE10      29.92F
SIDNEY         SUNNY     74  47  38 S14G22    29.92F
$$

NEZ057>060-069>072-079>082-212100-
SOUTHWEST NEBRASKA

CITY           SKY/WX    TMP DP  RH WIND       PRES   REMARKS
NORTH PLATTE   SUNNY     76  53  44 S20G32    29.92F
IMPERIAL       SUNNY     78  46  32 S21G30    29.92F
LEXINGTON      SUNNY     76  57  51 S18G24    29.97F
MCCOOK         SUNNY     80  55  42 S21G30    29.95F
OGALLALA       SUNNY     78  53  41 S16G25    29.91F
$$

NEZ005>010-023>029-035>040-094-212100-
NORTH CENTRAL NEBRASKA

CITY           SKY/WX    TMP DP  RH WIND       PRES   REMARKS
VALENTINE      SUNNY     78  46  32 S21G32    29.88F
AINSWORTH      SUNNY     76  34  21 S28       29.91F
BROKEN BOW     SUNNY     76  45  33 S21G26    29.97F
O`NEILL        SUNNY     78  41  26 S21G28    29.96F
ORD            SUNNY     76  36  23 S21G26    29.96F
THEDFORD       SUNNY     76  53  44 S23G30    29.93F
$$

NEZ041-046>049-061>064-073>077-083>087-212100-
SOUTH CENTRAL NEBRASKA

CITY           SKY/WX    TMP DP  RH WIND       PRES   REMARKS
GRAND ISLAND   SUNNY     77  35  21 S20G28    30.01F
AURORA         HAZE      77  32  19 S17G24    30.01F VSB 1/2
HASTINGS       SUNNY     76  46  34 S12G26    30.00F
HEBRON         SUNNY     77  34  21 S15       30.03F
HOLDREGE       SUNNY     74  54  49 S20G26    29.98F
KEARNEY *      SUNNY     75  52  43 SE20G25   30.00F
YORK           SUNNY     75  41  29 S15G21    30.03S
$$

NEZ011>018-030>034-042>045-212100-
NORTHEAST NEBRASKA

CITY           SKY/WX    TMP DP  RH WIND       PRES   REMARKS
NORFOLK        SUNNY     77  43  29 S17       29.99F
ALBION         SUNNY     76  38  25 S18G25    29.99F
BLAIR          SUNNY     74  40  28 SE9       30.05F
COLUMBUS *     SUNNY     77  43  29 S15       30.02F
FREMONT        SUNNY     76  42  30 SE10      30.04F
TEKAMAH        SUNNY     76  40  27 S14       30.03F
WAYNE          SUNNY     77  44  31 S14       30.00F
$$

NEZ050>053-065>068-078-088>093-212100-
SOUTHEAST NEBRASKA

CITY           SKY/WX    TMP DP  RH WIND       PRES   REMARKS
LINCOLN        SUNNY     77  44  30 S14       30.04F
OMAHA EPPLEY   SUNNY     73  40  30 S10       30.05F
BEATRICE       SUNNY     75  46  34 S10       30.04F
FALLS CITY     SUNNY     74  41  30 S6        30.06F
NEBRASKA CITY  SUNNY     73  35  24 SE7       30.06F
PLATTSMOUTH    SUNNY     73  34  23 SE6       30.06F
$$

NEZ044-045-051>053-067-212100-
OMAHA AREA

CITY           SKY/WX    TMP DP  RH WIND       PRES   REMARKS
OMAHA EPPLEY   SUNNY     73  40  30 S10       30.05F
BLAIR          SUNNY     74  40  28 SE9       30.05F
FREMONT        SUNNY     76  42  30 SE10      30.04F
OFFUTT AFB     SUNNY     74  42  31 SE12      30.05F
PLATTSMOUTH    SUNNY     73  34  23 SE6       30.06F
WAHOO          FAIR      77  39  25 S8        30.03F
$$



USA.gov is the U.S. government's official web portal to all federal, state and local government web resources and services.